Location: Baumgartsau
(48.4586°N, 14.0864°E)
Time: 09:22:40
(UTC+00:00)

STARLINK-1189 - Pass Details

Date: 09 April 2020
Orbit: 378 x 381 km, 53.0° (Epoch: 25 May)

Event Time Altitude Azimuth Distance (km) Brightness Sun altitude
Rises 18:18:26 0° 295° (WNW) 2,264 9.3 -5.9°
Reaches altitude 10° 18:20:30 10° 298° (WNW) 1,408 7.5 -6.2°
Maximum altitude 18:23:39 69° 23° (NNE) 414 3.0 -6.7°
Drops below altitude 10° 18:26:46 10° 107° (ESE) 1,401 5.0 -7.2°
Enters shadow 18:26:48 10° 107° (ESE) 1,419 5.0 -7.2°
